TimeCDT,TemperatureF,Dew PointF,Humidity,Sea Level PressureIn,VisibilityMPH,Wind Direction,Wind SpeedMPH,Gust SpeedMPH,PrecipitationIn,Events,Conditions,WindDirDegrees,DateUTC
12:15 AM,46.9,27.5,47,30.27,10.0,South,8.1,-,N/A,,Clear,180,2013-03-14 05:15:00
12:35 AM,47.5,27.5,46,30.27,10.0,South,9.2,-,N/A,,Clear,170,2013-03-14 05:35:00
12:55 AM,45.1,28.4,52,30.26,10.0,South,9.2,-,N/A,,Clear,190,2013-03-14 05:55:00
1:15 AM,44.6,27.7,52,30.26,10.0,South,10.4,-,N/A,,Clear,190,2013-03-14 06:15:00
1:35 AM,45.7,27.5,49,30.26,10.0,South,10.4,-,N/A,,Clear,190,2013-03-14 06:35:00
1:55 AM,43.9,27.3,52,30.25,10.0,South,8.1,-,N/A,,Clear,190,2013-03-14 06:55:00
2:15 AM,42.1,27.0,55,30.26,10.0,SSW,8.1,-,N/A,,Clear,200,2013-03-14 07:15:00
2:35 AM,41.4,26.8,56,30.26,10.0,SSW,8.1,-,N/A,,Clear,210,2013-03-14 07:35:00
2:55 AM,42.4,26.8,54,30.26,10.0,Calm,Calm,-,N/A,,Clear,0,2013-03-14 07:55:00
3:15 AM,40.5,26.4,57,30.26,10.0,SW,3.5,-,N/A,,Clear,230,2013-03-14 08:15:00
3:35 AM,41.4,26.6,56,30.24,10.0,WSW,4.6,-,N/A,,Clear,240,2013-03-14 08:35:00
3:55 AM,40.8,26.8,57,30.24,10.0,SW,5.8,-,N/A,,Clear,220,2013-03-14 08:55:00
4:15 AM,40.8,26.4,57,30.24,10.0,SW,5.8,-,N/A,,Clear,220,2013-03-14 09:15:00
4:35 AM,38.8,26.2,61,30.23,10.0,SW,5.8,-,N/A,,Clear,230,2013-03-14 09:35:00
4:55 AM,40.3,26.2,57,30.22,10.0,SW,3.5,-,N/A,,Clear,220,2013-03-14 09:55:00
5:15 AM,40.1,25.7,56,30.22,10.0,Calm,Calm,-,N/A,,Clear,0,2013-03-14 10:15:00
5:35 AM,39.0,25.7,59,30.22,10.0,SW,4.6,-,N/A,,Clear,220,2013-03-14 10:35:00
5:55 AM,37.9,25.0,60,30.22,10.0,Calm,Calm,-,N/A,,Clear,0,2013-03-14 10:55:00
6:15 AM,37.0,25.5,63,30.22,10.0,Calm,Calm,-,N/A,,Clear,0,2013-03-14 11:15:00
6:35 AM,33.6,22.8,65,30.22,10.0,Calm,Calm,-,N/A,,Clear,0,2013-03-14 11:35:00
6:55 AM,32.0,23.2,70,30.22,10.0,Calm,Calm,-,N/A,,Clear,0,2013-03-14 11:55:00
7:15 AM,31.5,23.4,72,30.22,10.0,Calm,Calm,-,N/A,,Clear,0,2013-03-14 12:15:00
7:35 AM,30.0,22.1,72,30.23,10.0,Calm,Calm,-,N/A,,Clear,0,2013-03-14 12:35:00
7:55 AM,30.7,23.7,75,30.23,10.0,Calm,Calm,-,N/A,,Clear,0,2013-03-14 12:55:00
8:15 AM,31.1,23.9,75,30.23,10.0,WNW,3.5,-,N/A,,Clear,290,2013-03-14 13:15:00
8:35 AM,32.0,25.3,76,30.23,10.0,WNW,4.6,-,N/A,,Clear,290,2013-03-14 13:35:00
8:55 AM,35.8,27.3,71,30.24,10.0,Calm,Calm,-,N/A,,Clear,0,2013-03-14 13:55:00
9:15 AM,41.0,27.0,57,30.23,10.0,SW,3.5,-,N/A,,Clear,230,2013-03-14 14:15:00
9:35 AM,44.4,28.2,53,30.24,10.0,SW,4.6,-,N/A,,Clear,230,2013-03-14 14:35:00
9:55 AM,47.7,27.5,46,30.24,10.0,West,6.9,-,N/A,,Clear,260,2013-03-14 14:55:00
10:15 AM,51.3,28.0,41,30.25,10.0,West,9.2,-,N/A,,Clear,270,2013-03-14 15:15:00
10:35 AM,53.1,29.1,40,30.25,10.0,West,6.9,-,N/A,,Clear,270,2013-03-14 15:35:00
10:55 AM,56.7,30.0,36,30.24,10.0,WNW,5.8,-,N/A,,Clear,300,2013-03-14 15:55:00
11:15 AM,58.8,30.0,34,30.24,10.0,WNW,4.6,-,N/A,,Clear,290,2013-03-14 16:15:00
11:35 AM,63.1,28.8,27,30.24,10.0,NNW,6.9,-,N/A,,Clear,330,2013-03-14 16:35:00
11:55 AM,64.8,28.0,25,30.24,10.0,North,11.5,-,N/A,,Clear,350,2013-03-14 16:55:00
12:15 PM,67.1,27.3,22,30.24,10.0,NNE,12.7,17.3,N/A,,Clear,30,2013-03-14 17:15:00
12:35 PM,68.5,28.8,23,30.24,10.0,North,10.4,-,N/A,,Clear,360,2013-03-14 17:35:00
12:55 PM,68.9,28.6,22,30.24,10.0,North,10.4,-,N/A,,Clear,10,2013-03-14 17:55:00
1:15 PM,70.2,25.7,19,30.24,10.0,NNE,12.7,18.4,N/A,,Clear,20,2013-03-14 18:15:00
1:35 PM,70.2,25.7,19,30.23,10.0,NNE,10.4,-,N/A,,Clear,30,2013-03-14 18:35:00
1:55 PM,71.4,25.7,18,30.22,10.0,NE,8.1,-,N/A,,Clear,40,2013-03-14 18:55:00
2:15 PM,72.5,26.6,18,30.22,10.0,NNE,9.2,-,N/A,,Clear,20,2013-03-14 19:15:00
2:55 PM,74.5,26.4,17,30.21,10.0,NNE,15.0,-,N/A,,Clear,20,2013-03-14 19:55:00
3:15 PM,74.5,26.6,17,30.20,10.0,NNE,12.7,18.4,N/A,,Clear,30,2013-03-14 20:15:00
3:35 PM,74.5,27.7,18,30.19,10.0,NNE,13.8,-,N/A,,Clear,30,2013-03-14 20:35:00
3:55 PM,74.5,27.3,17,30.19,10.0,NNE,10.4,-,N/A,,Clear,20,2013-03-14 20:55:00
4:15 PM,75.2,27.1,17,30.19,10.0,North,8.1,-,N/A,,Clear,10,2013-03-14 21:15:00
4:35 PM,75.4,26.4,16,30.18,10.0,North,9.2,-,N/A,,Clear,10,2013-03-14 21:35:00
4:55 PM,75.2,25.5,16,30.18,10.0,North,5.8,-,N/A,,Clear,360,2013-03-14 21:55:00
5:15 PM,75.0,24.8,15,30.17,10.0,North,6.9,-,N/A,,Clear,350,2013-03-14 22:15:00
5:35 PM,75.2,25.7,16,30.17,10.0,NE,5.8,-,N/A,,Clear,50,2013-03-14 22:35:00
5:55 PM,74.7,25.0,16,30.17,10.0,North,5.8,-,N/A,,Clear,360,2013-03-14 22:55:00
6:15 PM,74.5,25.5,16,30.17,10.0,NNE,9.2,-,N/A,,Clear,30,2013-03-14 23:15:00
6:35 PM,73.6,26.6,17,30.17,10.0,NNE,5.8,-,N/A,,Clear,20,2013-03-14 23:35:00
6:55 PM,72.7,27.7,19,30.17,10.0,NE,5.8,-,N/A,,Clear,40,2013-03-14 23:55:00
7:15 PM,70.5,30.4,23,30.17,10.0,NNE,6.9,-,N/A,,Clear,30,2013-03-15 00:15:00
7:35 PM,66.9,31.6,27,30.17,10.0,NNE,8.1,-,N/A,,Clear,30,2013-03-15 00:35:00
7:55 PM,63.0,32.0,31,30.17,10.0,NNE,8.1,-,N/A,,Clear,20,2013-03-15 00:55:00
8:15 PM,58.6,29.5,33,30.17,10.0,NNE,9.2,-,N/A,,Clear,20,2013-03-15 01:15:00
8:35 PM,57.0,28.4,34,30.18,10.0,NNE,8.1,-,N/A,,Clear,20,2013-03-15 01:35:00
8:55 PM,55.2,28.0,35,30.18,10.0,NNE,6.9,-,N/A,,Clear,20,2013-03-15 01:55:00
9:15 PM,53.6,25.7,34,30.18,10.0,NNE,5.8,-,N/A,,Clear,30,2013-03-15 02:15:00
9:35 PM,53.8,25.9,34,30.18,10.0,NNE,6.9,-,N/A,,Clear,30,2013-03-15 02:35:00
9:55 PM,50.4,27.0,40,30.18,10.0,North,5.8,-,N/A,,Clear,10,2013-03-15 02:55:00
10:15 PM,49.5,27.9,43,30.19,10.0,North,4.6,-,N/A,,Clear,10,2013-03-15 03:15:00
10:35 PM,49.6,26.1,40,30.18,10.0,NNE,4.6,-,N/A,,Clear,30,2013-03-15 03:35:00
10:55 PM,46.4,27.3,47,30.19,10.0,Calm,Calm,-,N/A,,Clear,0,2013-03-15 03:55:00
11:15 PM,44.1,27.3,52,30.19,10.0,North,3.5,-,N/A,,Clear,360,2013-03-15 04:15:00
11:35 PM,44.4,27.3,51,30.19,10.0,WNW,8.1,-,N/A,,Clear,300,2013-03-15 04:35:00
11:55 PM,43.5,27.9,54,30.19,10.0,NW,8.1,-,N/A,,Clear,320,2013-03-15 04:55:00